This demonstration page uses our WeatherBlox Daily Observations layout. Learn more.

Left ArrowRight Arrow

34.74481, -87.66753

Hourly Observations for September 19, 2020

Temp ( °F °C ) Dew Point ( °F °C ) Humidity (%) Winds ( mph kmh ) Pressure ( in mb ) Visibility ( mi km ) Precip ( " mm )
12:53 am 00:53 Clear 65 18.3 53 11.7 66 66 NE 8 13 30.11 1020 10 16 0.00 0.00
1:53 am 01:53 Clear 64 17.8 52 11.1 65 65 NE 8 13 30.10 1019 10 16 0.00 0.00
2:53 am 02:53 Clear 63 17.2 52 11.1 68 68 NE 7 11 30.10 1019 10 16 0.00 0.00
3:53 am 03:53 Clear 62 16.7 52 11.1 70 70 NNE 13 20 30.09 1019 10 16 0.00 0.00
4:53 am 04:53 Clear 61 16.1 51 10.6 70 70 NE 6 9 30.11 1020 10 16 0.00 0.00
5:53 am 05:53 Clear 61 16.1 51 10.6 70 70 NE 8 13 30.12 1020 10 16 0.00 0.00
6:53 am 06:53 Sunny 60 15.6 51 10.6 72 72 NE 7 11 30.13 1020 10 16 0.00 0.00
7:53 am 07:53 Sunny 60 15.6 52 11.1 75 75 NE 6 9 30.15 1021 10 16 0.00 0.00
8:53 am 08:53 Mostly Cloudy 63 17.2 52 11.1 68 68 ENE 7 11 30.15 1021 10 16 0.00 0.00
9:53 am 09:53 Cloudy 65 18.3 54 12.2 68 68 E 7 11 30.16 1021 10 16 0.00 0.00
10:43 am 10:43 Cloudy 65 18.3 54 12.2 68 68 ENE 6 9 30.17 1022 10 16 0.00 0.00
10:53 am 10:53 Cloudy 66 18.9 55 12.8 68 68 NE 7 11 30.16 1022 10 16 0.00 0.00
11:16 am 11:16 Cloudy 67 19.4 55 12.8 66 66 E 7 11 30.17 1022 10 16 0.00 0.00
11:53 am 11:53 Mostly Cloudy 70 21.1 57 13.9 64 64 E 9 15 30.16 1021 10 16 0.00 0.00
12:53 pm 12:53 Cloudy 72 22.2 58 14.4 61 61 VRB 5 7 30.15 1021 10 16 0.00 0.00
1:06 pm 13:06 Cloudy 72 22.2 58 14.4 61 61 undefined N/A 30.15 1021 10 16 0.00 0.00
1:15 pm 13:15 Mostly Cloudy 73 22.8 59 15 62 62 ENE 6 9 30.14 1021 10 16 0.00 0.00
1:53 pm 13:53 Sunny 74 23.3 59 15 60 60 VRB 3 6 30.13 1020 10 16 0.00 0.00
2:53 pm 14:53 Mostly Cloudy 76 24.4 60 15.6 58 58 undefined N/A 30.12 1020 10 16 0.00 0.00
3:53 pm 15:53 Partly Cloudy 76 24.4 60 15.6 58 58 NE 9 15 30.11 1020 10 16 0.00 0.00
4:53 pm 16:53 Mostly Cloudy 75 23.9 60 15.6 60 60 NE 10 17 30.11 1020 10 16 0.00 0.00
5:53 pm 17:53 Sunny 74 23.3 60 15.6 62 62 NE 8 13 30.12 1020 10 16 0.00 0.00
6:53 pm 18:53 Mostly Cloudy 72 22.2 60 15.6 66 66 NE 8 13 30.14 1021 10 16 0.00 0.00
7:53 pm 19:53 Cloudy 71 21.7 60 15.6 68 68 NE 7 11 30.15 1021 10 16 0.00 0.00
8:53 pm 20:53 Cloudy 70 21.1 60 15.6 71 71 NE 6 9 30.16 1021 10 16 0.00 0.00
9:53 pm 21:53 Cloudy 69 20.6 60 15.6 73 73 ENE 6 9 30.17 1022 10 16 0.00 0.00
10:53 pm 22:53 Mostly Cloudy 68 20 60 15.6 76 76 ENE 5 7 30.19 1022 10 16 0.00 0.00
11:53 pm 23:53 Mostly Cloudy 68 20 61 16.1 78 78 E 5 7 30.18 1022 10 16 0.00 0.00

Powered by AerisWeather